Location: Neuvy Saint Sepulchre
(46.5953°N, 1.8122°E)
Time: 11:43:10
(UTC+02:00)

ISS - Pass Details

Date: 28 April 2026
Orbit: 415 x 424 km, 51.6° (Epoch: 14 April)

Event Time Altitude Azimuth Distance (km) Brightness Sun altitude
Exits shadow 03:59:32 51° 47° (NE) 537 -2.9 -22.7°
Drops below altitude 10° 04:02:10 10° 62° (ENE) 1,502 -0.1 -22.5°
Sets 04:04:16 0° 64° (ENE) 2,369 1.1 -22.2°
